OBJECT L, 68990

Orbit data source: Space-Track

You're viewing an Uncataloged Satellite

Recently launched and/or uncataloged satellites may have evolving metadata. Metadata may include but not limited to: Owner, Maufacturer, Bus, Motor, and Mission.

OBJECT L, 68990 is a satellite in SSO that was launched on Sun, 03 May 2026 UTC launched from the Air Force Western Test Range (AFWTR). Unknown objects in Earth's orbit typically refer to objects detected orbiting the Earth but have not yet been identified or cataloged. These objects could be anything from previously untracked satellites, spent rocket stages, debris from satellite collisions, or even natural meteoroids temporarily captured by Earth's gravity.

Loading next visibility...
Identifier
68990, 2026-100L
Orbit
SSO
Country
Flag of TBDTBD
Related business
None
Manufacturer
Unknown
Mission
Operational spacecraft
Bus & Motor
Unknown
Mass
Unknown
Launch date (UTC)
2026-05-03 (1 week ago)
Launch vehicle
Unknown
Launch site
Air Force Western Test Range (AFWTR)
Object type
Unknown
Shape & HBR
Unknown
Radar Cross Section
RCS unknown

Expand to show TLE details & history
Last TLE update: 11 hours ago

TLE from 11 hours ago
0 OBJECT L
1 68990U 26100L   26129.97702161  .00000996  00000-0  10669-3 0  9993
2 68990  97.7347  28.1360 0003853 300.7939  59.2900 14.90853523  1007
Epoch: 2026-05-09T23:26Z
TLE epoch observation values (Epoch: 2026-05-09T23:26:54.667Z)
Latitude
0.00002°
Longitude
168.6215°
Altitude
596.942 km
Speed
7.562 km/s
True Right ascension
01h 52m 32s
True Declination
0° 00' 00"
Sunlit
Object was in daylight at epoch
Visualization orbit readout
Latitude
Unknown
Longitude
Unknown
Altitude
Unknown
Speed
Unknown
Apparent Right ascension
Unknown
Apparent Declination
Unknown
Sunlit
N/A
Visualization observer readout
Local Sidereal Time
18:58:12
Azimuth
Unknown
Elevation
Unknown
Doppler factor
Unknown
Orbital elements
Apogee altitude
594.978 km
Perigee altitude
589.606 km
Semi-major axis
6,970.429 km
Eccentricity
0.00039
Inclination
97.7347°
RAAN
28.136°
Arg. of periapsis
300.7939°
True anomaly
59.32797°
Mean anomaly
59.29°
Eccentric anomaly
59.30898°
Mean motion
3.72953 °/min
Orbital period
96.53 mins
BSTAR
0.00010669
Loading maneuver chart data...
Computing Atmospheric mass density...
Loading historical data...
Loading historical data...
Loading historical data...
Loading historical data...
Loading historical data...
Loading historical data...
Loading historical data...

Documentation

Showing up to 5 results
|